Location: ?
(35.4064°N, 139.3593°E)
Time: 03:16:51
(UTC+00:00)

Resurs 1-4 Rocket - Pass Details

Date: 18 April 2024
Orbit: 798 x 814 km, 98.7° (Epoch: 20 May)

Event Time Altitude Azimuth Distance (km) Brightness Sun altitude
Rises 16:50:58 0° 9° (N) 3,329 6.1 -34.3°
Reaches altitude 10° 16:53:20 10° 6° (N) 2,392 5.1 -34.0°
Enters shadow 16:56:15 33° 354° (N) 1,333 3.5 -33.6°
